St. Petersburg, Russia

4:45 PM MSK on June 24, 2018 (GMT +0300)
Pulkovo

Weather History for ULLI - September, 2017

Change the Weather History Date:

Wednesday, September 13, 2017

  Actual Average Record
Temperature  
Mean Temperature 58 °F -  
Max Temperature 60 °F 59 °F 73 °F (1998)
Min Temperature 55 °F 44 °F 39 °F (1996)
Degree Days  
Heating Degree Days 8    
Growing Degree Days 8 (Base 50)    
Moisture  
Dew Point 56 °F    
Average Humidity 93    
Maximum Humidity 100    
Minimum Humidity 82    
Precipitation  
Precipitation 0.04 in - - ()
Sea Level Pressure  
Sea Level Pressure 29.47 in    
Wind  
Wind Speed 5 mph ()    
Max Wind Speed 18 mph    
Max Gust Speed -    
Visibility 4.9 miles    
Events Rain    
Averages and records for this station are not official NWS values.
T = Trace of Precipitation, MM = Missing Value Source: Averaged Metar Reports

Daily Weather History Graph

Daily Weather History Graph

Search for Another Location

Airport or City:

Astronomy

Sep. 13, 2017 Rise Set
Actual Time 6:22 AM MSK 7:25 PM MSK
Civil Twilight 5:39 AM MSK 8:08 PM MSK
Nautical Twilight 4:46 AM MSK 9:00 PM MSK
Astronomical Twilight 3:46 AM MSK 10:00 PM MSK
Moon 10:55 PM MSK (9/13) 3:25 PM MSK (9/13)
Length of Visible Light 14h 28m
Length of Day
13h 03m
Waning Gibbous, 49% of the Moon is Illuminated
Sep 13
Waning Gibbous
Sep 20
New
Sep 28
First Quarter
Oct 5
Full
Oct 12
Last Quarter

Hourly Weather History & Observations

Time (MSK) Temp. Dew Point Humidity Pressure Visibility Wind Dir Wind Speed Gust Speed Precip Events Conditions
12:00 AM 61 °F 59 °F 90% 29.65 in 6 mi Calm Calm - - Rain Light Rain
12:00 AM 60.8 °F 59.0 °F 94% 29.62 in 6.2 mi Variable 2.2 mph - N/A   Mostly Cloudy
12:30 AM 60.8 °F 59.0 °F 94% 29.62 in 4.3 mi Variable 2.2 mph - N/A Rain Light Rain Showers
1:00 AM 60.8 °F 59.0 °F 94% 29.62 in 3.7 mi Calm Calm - N/A Rain Light Rain Showers
1:30 AM 60.8 °F 60.8 °F 100% 29.59 in 3.7 mi Variable 2.2 mph - N/A Rain Light Rain Showers
2:00 AM 60.8 °F 60.8 °F 100% 29.59 in 3.7 mi Variable 2.2 mph - N/A Rain Light Rain Showers
2:30 AM 60.8 °F 60.8 °F 100% 29.59 in 3.1 mi NNE 4.5 mph - N/A Rain Light Rain Showers
3:00 AM 57 °F 55 °F 92% 29.60 in 2 mi NE 2.2 mph - - Rain Light Rain
3:00 AM 60.8 °F 57.2 °F 88% 29.56 in 6.2 mi NNE 6.7 mph - N/A Rain Light Rain Showers
3:30 AM 60.8 °F 57.2 °F 88% 29.56 in 6.2 mi Variable 2.2 mph - N/A   Overcast
4:00 AM 59.0 °F 57.2 °F 94% 29.56 in 3.1 mi WNW 15.7 mph - N/A Rain Light Rain Showers
4:30 AM 57.2 °F 55.4 °F 94% 29.56 in 1.3 mi NW 8.9 mph - N/A Rain Light Rain Showers
5:00 AM 57.2 °F 55.4 °F 94% 29.53 in 5.6 mi NNW 4.5 mph - N/A Rain Light Rain Showers
5:30 AM 57.2 °F 55.4 °F 94% 29.50 in 6.2 mi North 6.7 mph - N/A Rain Light Rain Showers
6:00 AM 56 °F 54 °F 92% 29.51 in 6 mi ENE 2.2 mph - -   Partly Cloudy
6:00 AM 57.2 °F 55.4 °F 94% 29.50 in 6.2 mi NE 4.5 mph - N/A   Overcast
6:30 AM 57.2 °F 55.4 °F 94% 29.47 in 6.2 mi NE 6.7 mph - N/A   Overcast
7:00 AM 57.2 °F 55.4 °F 94% 29.47 in 6.2 mi Calm Calm - N/A   Overcast
7:30 AM 57.2 °F 57.2 °F 100% 29.44 in 6.2 mi East 4.5 mph - N/A   Overcast
8:30 AM 57.2 °F 57.2 °F 100% 29.44 in 1.6 mi Variable 2.2 mph - N/A   Overcast
9:00 AM 57 °F 56 °F 94% 29.46 in 2 mi NW 2.2 mph - - Rain Light Drizzle
9:00 AM 57.2 °F 57.2 °F 100% 29.44 in 1.1 mi West 4.5 mph - N/A   Light Drizzle
9:30 AM 57.2 °F 57.2 °F 100% 29.42 in 1.2 mi NW 4.5 mph - N/A   Light Drizzle
10:00 AM 57.2 °F 57.2 °F 100% 29.42 in 1.6 mi North 4.5 mph - N/A   Overcast
10:30 AM 59.0 °F 57.2 °F 94% 29.42 in 1.3 mi NNW 4.5 mph - N/A   Overcast
11:00 AM 59.0 °F 57.2 °F 94% 29.39 in 1.3 mi NNW 4.5 mph - N/A   Overcast
11:30 AM 59.0 °F 57.2 °F 94% 29.39 in 1.3 mi WNW 4.5 mph - N/A   Light Drizzle
12:00 PM 58 °F 57 °F 94% 29.40 in 2 mi East 2.2 mph - - Rain Light Rain
12:00 PM 57.2 °F 57.2 °F 100% 29.42 in 6.2 mi West 11.2 mph - N/A Rain Light Rain Showers
12:30 PM 57.2 °F 57.2 °F 100% 29.39 in 6.2 mi WNW 8.9 mph - N/A Rain Light Rain Showers
1:00 PM 57.2 °F 55.4 °F 94% 29.39 in 6.2 mi WNW 17.9 mph - N/A   Overcast
1:30 PM 57.2 °F 55.4 °F 94% 29.42 in 6.2 mi WNW 15.7 mph - N/A   Overcast
2:00 PM 57.2 °F 55.4 °F 94% 29.42 in 6.2 mi WNW 15.7 mph - N/A   Overcast
2:30 PM 57.2 °F 55.4 °F 94% 29.42 in 6.2 mi WNW 13.4 mph - N/A   Overcast
3:00 PM 60 °F 56 °F 82% 29.44 in 6 mi WNW 4.5 mph - -   Partly Cloudy
3:00 PM 59.0 °F 55.4 °F 88% 29.42 in 6.2 mi WNW 13.4 mph - N/A   Overcast
3:30 PM 59.0 °F 55.4 °F 88% 29.44 in 6.2 mi WNW 13.4 mph - N/A   Overcast
4:00 PM 59.0 °F 55.4 °F 88% 29.44 in 6.2 mi WNW 13.4 mph - N/A   Overcast
4:30 PM 59.0 °F 55.4 °F 88% 29.44 in 6.2 mi WNW 15.7 mph - N/A   Overcast
5:00 PM 59.0 °F 55.4 °F 88% 29.44 in 6.2 mi WNW 13.4 mph - N/A   Overcast
5:30 PM 59.0 °F 55.4 °F 88% 29.44 in 6.2 mi West 11.2 mph - N/A   Overcast
6:00 PM 58 °F 55 °F 87% 29.46 in 6 mi West 4.5 mph - -   Overcast
6:00 PM 59.0 °F 55.4 °F 88% 29.44 in 6.2 mi West 11.2 mph - N/A   Overcast
6:30 PM 57.2 °F 55.4 °F 94% 29.44 in 6.2 mi West 6.7 mph - N/A   Overcast
7:00 PM 57.2 °F 55.4 °F 94% 29.44 in 6.2 mi West 4.5 mph - N/A   Overcast
7:30 PM 57.2 °F 55.4 °F 94% 29.42 in 6.2 mi West 4.5 mph - N/A   Scattered Clouds
8:00 PM 57.2 °F 55.4 °F 94% 29.42 in 6.2 mi SW 4.5 mph - N/A   Scattered Clouds
8:30 PM 57.2 °F 55.4 °F 94% 29.42 in 6.2 mi SSW 4.5 mph - N/A   Scattered Clouds
9:00 PM 58 °F 55 °F 88% 29.43 in 6 mi SW 4.5 mph - -   Overcast
9:30 PM 57.2 °F 55.4 °F 94% 29.42 in 6.2 mi SSW 6.7 mph - N/A   Mostly Cloudy
10:00 PM 57.2 °F 55.4 °F 94% 29.42 in 6.2 mi SW 6.7 mph - N/A   Mostly Cloudy
10:30 PM 57.2 °F 55.4 °F 94% 29.42 in 6.2 mi SW 4.5 mph - N/A   Scattered Clouds
11:00 PM 57.2 °F 55.4 °F 94% 29.42 in 5.6 mi SSW 6.7 mph - N/A Rain Light Rain Showers
11:30 PM 57.2 °F 55.4 °F 94% 29.39 in 5.6 mi SSW 4.5 mph - N/A Rain Light Rain Showers